Flag for India Weather past 2 weeks in Vellore, Tamil Nadu, India

Now
88 °F

Scattered clouds.


Feels Like: 100 °F
Forecast: 79 / 95 °F
Wind: 5 mph from Southwest

Location: Madras / Minambakkam

Current Time: Aug 31, 2015 at 11:21:14 AM

Latest Report: Aug 31, 2015 at 10:10 AM


Visibility: 2 mi

Pressure: 29.80 "Hg

Humidity: 70%

Dew point: 77 °F

Location of VelloreLocation

Historic Weather in Vellore — Graph

°F

Vellore temperature yesterday

Maximum temperature yesterday: 99 °F (at 3:10 PM)
Minimum temperature yesterday: 82 °F (at 3:10 AM)
Average temperature yesterday: 89 °F

Past Weeks' High & Low Weather Summary

 TemperatureHumidityPressure
High99 °F (Aug 20, 1:40 PM)94% (Aug 17, 5:10 AM)29.83 "Hg (Aug 17, 5:10 AM)
Low75 °F (Aug 21, 2:40 AM)44% (Aug 25, 3:10 PM)29.59 "Hg (Aug 26, 3:40 PM)
Average86 °F74%29.73 "Hg
* Reported Aug 16 9:40 AM — Aug 31 10:10 AM, Vellore, Weather by CustomWeather, © 2015

Note: Actual official high and low records may vary slightly from our data, if they occured in-between our weather recording intervals... More about our weather records

Advertising

Vellore weather history for previous 24 hours

 ConditionsComfort  
Time TempWeatherWind HumidityBarometerVisibility
10:10 AM
Mon, Aug 31
88 °FScattered clouds.5 mph70%29.80 "Hg2 mi
9:40 AM88 °FFog.6 mph70%29.80 "Hg2 mi
9:10 AM84 °FFog.3 mph79%29.80 "Hg2 mi
8:40 AM84 °FFog.5 mph74%29.80 "Hg2 mi
8:10 AM82 °FFog.5 mph84%29.80 "Hg2 mi
7:40 AM81 °FBroken clouds.5 mph89%29.77 "Hg4 mi
7:10 AM79 °FBroken clouds.5 mph94%29.77 "Hg4 mi
6:40 AM79 °FBroken clouds.5 mph89%29.74 "Hg4 mi
5:40 AM79 °FPartly cloudy.5 mph89%29.74 "Hg4 mi
5:10 AM79 °FPartly cloudy.3 mph89%29.74 "Hg4 mi
4:40 AM79 °FPassing clouds.5 mph89%29.74 "Hg4 mi
4:10 AM79 °FPassing clouds.6 mph89%29.74 "Hg4 mi
3:40 AM77 °FPassing clouds.9 mph94%29.74 "Hg4 mi
3:10 AM77 °FPassing clouds.14 mph94%29.74 "Hg4 mi
2:40 AM77 °FPassing clouds.13 mph94%29.74 "Hg4 mi
1:40 AM79 °FPassing clouds.3 mph89%29.77 "Hg4 mi
1:10 AM77 °FPassing clouds.6 mph94%29.77 "Hg3 mi
12:40 AM77 °FThunderstorms. Partly cloudy.12 mph94%29.77 "Hg2 mi
12:10 AM81 °FThunderstorms. Passing clouds.14 mph84%29.80 "Hg3 mi
11:40 PM
Sun, Aug 30
84 °FPassing clouds.14 mph79%29.80 "Hg3 mi
11:10 PM86 °FPassing clouds.6 mph75%29.77 "Hg3 mi
10:40 PM86 °FPassing clouds.6 mph75%29.77 "Hg3 mi
10:10 PM84 °FPassing clouds.No wind79%29.77 "Hg3 mi
9:40 PM84 °FPassing clouds.8 mph79%29.77 "Hg3 mi
9:10 PM88 °FPassing clouds.5 mph75%29.77 "Hg3 mi
8:40 PM88 °FPassing clouds.7 mph70%29.71 "Hg3 mi
8:10 PM88 °FPassing clouds.7 mph70%29.71 "Hg3 mi
7:40 PM88 °FPassing clouds.7 mph70%29.68 "Hg3 mi
7:10 PM88 °FPassing clouds.9 mph70%29.68 "Hg3 mi
6:10 PM90 °FScattered clouds.5 mph67%29.65 "Hg4 mi
5:40 PM90 °FScattered clouds.6 mph67%29.65 "Hg4 mi
5:10 PM91 °FScattered clouds.5 mph63%29.62 "Hg4 mi
4:40 PM93 °FScattered clouds.6 mph59%29.62 "Hg4 mi
4:10 PM95 °FScattered clouds.6 mph56%29.65 "Hg5 mi
3:40 PM97 °FPassing clouds.5 mph47%29.65 "Hg5 mi
3:10 PM99 °FPassing clouds.5 mph44%29.65 "Hg5 mi
2:40 PM97 °FScattered clouds.7 mph47%29.65 "Hg5 mi
2:10 PM97 °FScattered clouds.6 mph47%29.68 "Hg5 mi
1:40 PM97 °FScattered clouds.6 mph47%29.71 "Hg5 mi
1:10 PM97 °FPassing clouds.8 mph47%29.71 "Hg5 mi
12:40 PM95 °FPassing clouds.9 mph50%29.71 "Hg5 mi
12:10 PM93 °FPassing clouds.8 mph56%29.74 "Hg5 mi
11:40 AM93 °FPassing clouds.8 mph56%29.74 "Hg5 mi
11:10 AM93 °FPassing clouds.7 mph56%29.74 "Hg5 mi
Weather by CustomWeather, © 2015

See weather overviewHow to use our weather pages